Theta_e
352 361 366 366 364 363 361 362 363 364 364 363 364 364 363 360 361 361 362 362 362 363 361 359 358 358 357 356 355 357 358 357 356 354 354 353 352 352 356 353 350 347 348
355 362 365 365 364 363 361 362 362 363 363 363 364 363 361 360 361 361 361 362 363 361 360 358 356 356 355 354 354 355 356 356 358 357 355 353 352 352 352 353 353 352 351
355 361 362 363 364 363 361 361 361 361 362 362 363 362 361 360 361 361 361 362 362 360 359 357 355 354 354 353 354 354 353 355 356 356 354 352 353 353 354 355 353 354 355
356 360 359 363 363 362 361 360 360 361 361 361 361 360 360 360 360 361 362 362 361 358 358 356 354 353 353 353 352 352 354 356 357 355 349 351 353 357 354 351 353 355 355
355 358 359 362 362 362 361 360 360 360 361 361 361 360 361 360 360 361 362 362 361 358 357 356 354 353 352 351 352 353 354 356 351 345 344 348 354 353 353 356 356 356 355
356 358 361 360 362 360 360 360 360 360 360 361 360 360 360 360 360 360 361 361 360 357 356 354 354 352 351 350 351 352 353 354 345 342 346 347 349 356 357 357 355 353 351
355 357 360 360 361 361 360 360 359 359 359 360 360 360 360 360 360 360 361 360 360 359 355 353 352 352 352 351 351 351 353 351 338 340 345 349 353 357 356 352 349 348 348
355 357 358 360 361 360 359 360 359 359 359 359 359 359 359 360 360 361 361 361 360 358 355 352 352 352 350 349 350 351 353 350 342 343 348 352 356 355 351 349 348 346 345
356 356 357 356 359 360 359 358 359 358 358 357 357 357 358 359 360 360 360 359 358 356 355 354 352 351 349 348 349 350 352 352 341 342 351 354 356 353 350 346 344 343 341
354 354 354 355 356 356 355 358 358 359 358 357 357 357 357 358 358 358 355 357 357 355 354 353 351 350 348 347 347 349 350 347 341 343 351 355 354 349 345 343 341 339 336
351 352 353 352 354 353 353 355 358 359 358 358 357 357 355 352 353 355 354 357 356 354 353 351 350 349 348 348 349 350 348 345 342 349 352 355 351 346 342 339 337 336 336
331 349 351 351 349 349 351 351 352 353 355 353 353 353 349 350 349 352 354 356 355 353 352 351 350 349 345 340 339 340 342 343 341 349 353 352 349 342 339 337 336 335 335
328 344 350 350 350 348 347 348 348 351 352 353 353 351 347 347 349 348 347 352 349 352 346 346 343 341 339 339 339 338 338 343 347 352 350 350 346 340 337 336 334 334 334
328 339 350 350 348 348 348 346 346 347 347 347 349 348 346 344 343 342 342 344 343 342 340 339 337 338 339 340 339 337 337 344 349 350 347 349 345 340 335 335 333 334 333
329 339 349 348 347 347 346 345 345 345 345 346 346 346 344 341 340 340 339 340 341 338 338 336 337 337 337 338 339 340 341 346 348 348 347 347 345 342 335 333 332 333 333
328 337 345 348 347 347 345 345 344 344 344 344 345 345 342 340 339 339 338 339 339 338 336 337 337 339 339 342 344 346 346 346 346 344 343 343 343 340 339 333 331 331 331
325 336 345 346 348 346 346 345 344 344 344 344 344 343 342 340 338 339 340 339 338 338 337 337 336 338 340 342 341 344 345 344 343 341 339 340 339 341 339 332 330 329 329
329 338 346 349 347 346 346 344 343 343 342 341 341 341 341 341 340 339 340 340 340 338 337 337 338 339 338 337 338 337 341 343 342 339 338 335 333 331 336 332 329 328 328
329 335 342 345 343 346 345 344 342 340 339 338 340 339 340 341 343 340 339 339 339 338 340 342 336 337 334 335 333 333 334 338 340 337 334 332 327 326 327 331 330 329 329
336 334 339 344 339 341 344 341 338 337 336 336 338 337 338 339 344 341 340 338 342 340 337 336 333 331 332 329 327 326 328 331 332 330 327 323 323 323 325 328 324 326 333
334 336 338 342 346 344 338 336 334 333 335 335 337 339 337 338 343 339 339 342 340 337 334 333 329 328 328 328 323 319 319 319 320 321 321 322 321 321 322 324 324 324 323
332 336 337 341 341 340 339 338 337 336 336 336 337 339 338 338 342 342 343 340 337 333 330 331 331 327 324 324 323 320 314 317 318 318 317 317 317 318 321 323 324 324 322
332 333 337 339 336 338 338 336 334 335 335 334 337 337 338 341 344 343 341 338 334 334 330 331 331 329 322 319 320 323 317 315 313 314 316 315 316 316 318 321 322 321 320
333 335 336 337 336 337 336 335 333 331 330 333 335 338 340 344 343 341 338 336 333 332 330 330 329 329 323 318 316 314 314 316 310 309 311 313 315 315 316 316 317 317 317
330 335 335 336 337 336 337 336 333 331 332 335 337 339 341 341 339 337 335 334 331 329 328 326 324 323 321 319 315 312 311 311 311 308 305 309 313 314 314 313 315 314 313
324 332 335 334 337 336 335 338 336 332 335 337 339 339 338 337 334 333 333 331 328 326 322 319 318 317 314 313 313 312 311 311 310 309 307 307 308 312 313 312 312 310 308
Wind_Speed
6 19 26 23 21 19 20 21 21 21 21 21 21 23 22 21 21 20 19 17 15 13 13 13 12 11 12 11 10 10 9 9 9 9 7 6 5 3 4 2 3 1 2
12 18 24 22 21 21 21 20 20 20 21 21 21 22 21 21 21 20 18 17 15 14 13 13 12 11 11 11 11 9 8 7 6 6 5 4 4 3 3 5 5 3 3
16 17 20 22 20 20 22 21 20 19 20 21 21 21 21 21 21 19 18 16 15 15 13 12 12 11 10 11 10 8 7 5 3 2 0 1 1 2 4 6 7 6 6
15 16 18 22 20 21 21 21 20 19 19 20 21 22 21 21 20 19 17 16 15 15 14 13 12 11 11 10 9 8 6 4 3 3 1 2 1 5 7 8 8 9 8
12 13 15 21 20 22 22 21 20 20 18 18 19 21 22 21 20 18 16 16 15 14 13 12 11 11 10 9 8 6 5 6 8 6 2 3 5 7 9 9 9 9 11
10 11 17 20 16 19 22 22 20 20 19 18 18 19 21 20 19 16 15 15 14 13 12 11 11 9 9 7 7 6 6 8 9 7 7 8 7 9 11 10 11 12 11
10 10 15 20 16 17 20 20 21 20 19 18 18 18 18 19 18 16 14 14 12 12 10 9 9 8 9 7 7 7 7 9 6 5 6 6 7 9 11 11 11 11 11
11 10 11 17 17 17 18 19 19 20 19 19 17 18 16 16 16 15 13 13 12 11 9 7 7 6 8 7 7 6 7 8 6 5 5 5 8 10 10 10 11 11 12
7 11 8 9 11 16 17 18 18 18 19 18 17 16 15 14 13 13 12 11 11 10 8 5 4 6 7 6 6 6 5 6 3 2 4 4 9 11 11 11 11 11 12
5 7 8 10 9 8 9 16 17 17 16 17 16 14 14 12 11 11 11 10 10 9 8 5 3 5 6 5 4 4 3 5 2 3 3 5 10 12 12 12 11 11 12
4 4 4 7 7 8 6 10 14 18 15 14 14 14 10 4 5 8 8 9 9 8 7 5 3 3 4 3 1 2 3 1 2 4 4 10 10 12 12 11 10 11 13
5 1 4 5 10 5 8 8 5 8 7 5 6 6 4 4 4 5 7 8 7 6 6 4 2 1 5 1 1 2 1 2 4 4 5 11 10 11 11 9 10 11 12
3 1 6 6 7 6 7 8 7 4 5 5 7 8 4 4 3 2 2 2 2 4 2 1 1 2 3 1 1 1 1 3 4 4 8 11 10 10 9 8 8 9 10
8 6 7 9 8 10 6 7 7 8 8 8 9 10 3 4 3 3 2 2 2 1 2 2 1 1 1 2 2 2 2 4 4 4 7 10 7 8 7 7 6 8 9
6 7 10 10 10 9 11 8 7 8 7 8 8 10 4 3 3 3 3 2 2 2 2 2 2 1 1 2 1 1 6 7 7 3 3 10 8 5 6 5 6 7 8
9 8 11 13 12 11 11 11 7 7 7 7 7 9 7 5 4 3 3 2 2 1 1 2 3 2 1 2 2 6 6 5 7 5 2 4 6 4 2 5 6 6 6
10 14 13 13 13 12 11 10 6 7 7 7 7 8 8 7 5 4 3 3 2 2 3 3 3 1 2 4 5 6 6 5 6 5 4 1 1 1 2 3 4 4 3
7 14 17 14 10 9 10 9 7 7 7 7 6 7 8 7 6 5 4 2 3 3 3 3 1 3 4 5 3 4 4 3 5 4 4 3 1 1 2 2 2 1 1
9 11 13 18 17 9 9 8 7 9 8 7 6 7 9 8 7 5 4 3 4 3 2 3 3 3 4 5 4 4 4 3 3 4 4 3 2 2 1 0 0 2 4
6 8 7 9 14 21 11 6 4 5 5 6 6 7 9 7 7 4 3 5 4 4 3 3 5 4 4 6 6 6 4 4 3 3 2 0 1 1 1 1 3 3 7
5 6 14 13 17 12 10 11 8 9 6 6 7 10 10 8 7 6 4 6 5 5 4 5 5 6 3 1 4 4 5 5 5 3 3 2 2 2 3 1 1 2 4
8 10 7 16 15 14 12 11 8 9 7 7 7 8 11 10 9 7 7 6 6 5 6 4 3 3 3 2 2 2 3 1 2 4 4 4 6 4 3 2 3 6 5
10 12 13 13 16 16 15 8 4 5 3 3 4 4 6 11 11 10 8 8 6 5 6 4 3 4 3 2 2 3 2 3 1 2 5 6 7 5 4 5 7 7 8
14 12 13 11 12 13 13 12 12 9 8 6 9 7 8 11 11 8 10 9 8 5 6 3 3 2 4 5 2 5 5 3 2 1 2 3 6 9 7 6 7 9 9
13 12 14 13 12 12 13 12 10 10 6 3 6 9 8 11 13 11 10 10 9 6 5 6 4 4 2 4 2 2 4 4 4 2 2 0 1 4 5 6 6 8 9
7 11 11 13 13 12 10 11 13 11 8 8 8 7 8 7 10 10 9 9 9 7 6 6 5 5 6 6 4 4 2 2 1 2 1 1 0 1 3 6 7 7 8
Wind_Direction
184 146 151 156 156 156 135 127 128 128 131 134 134 130 134 137 136 136 135 135 135 133 130 125 124 123 121 115 109 104 109 113 118 121 125 133 132 124 103 113 90 83 143
139 143 150 154 155 150 132 129 129 131 133 135 133 132 133 137 137 138 139 138 137 137 135 133 131 129 123 119 118 116 113 113 117 122 141 145 134 106 67 23 9 360 330
143 144 148 155 153 143 136 135 134 133 134 135 134 133 135 139 140 140 140 141 141 141 139 136 133 130 128 126 126 126 119 115 107 110 190 186 176 107 53 19 357 352 347
142 145 150 157 150 142 138 137 137 137 138 138 137 138 139 141 142 142 144 143 144 144 142 140 138 134 133 130 131 128 117 85 35 358 349 353 311 99 51 31 24 18 14
138 142 152 157 150 143 140 140 141 139 140 139 141 142 143 144 145 146 145 142 145 146 143 141 139 135 134 132 127 109 73 39 24 13 88 75 92 69 52 37 36 35 28
134 137 152 156 150 144 141 142 143 142 143 145 146 147 146 146 144 145 144 141 143 145 146 144 140 138 127 121 108 80 57 49 34 53 78 76 72 62 53 47 40 38 33
135 136 149 156 149 147 144 144 144 144 145 148 150 150 149 147 145 146 144 140 138 138 143 146 142 133 113 103 89 77 51 55 63 64 73 77 72 71 64 54 48 42 39
122 134 143 156 153 148 146 147 148 148 147 148 151 150 152 149 148 145 144 138 135 139 143 153 144 125 102 96 87 75 69 69 66 75 79 77 87 79 73 67 62 56 48
111 133 139 154 156 148 149 151 151 151 150 148 150 153 151 152 148 143 140 139 138 137 142 153 142 111 98 101 103 87 69 75 87 113 111 100 96 94 87 78 64 56 47
98 136 149 152 147 141 152 154 152 153 153 148 149 152 150 152 148 145 141 143 141 143 147 147 140 110 106 106 105 106 85 71 85 147 122 116 114 104 90 76 64 56 47
102 139 152 164 139 140 142 158 155 154 151 150 149 149 142 140 145 145 146 148 152 156 152 156 155 122 94 76 97 168 125 142 155 141 134 122 105 96 86 74 68 59 50
15 169 159 180 176 157 153 155 138 155 147 138 140 143 127 131 136 144 158 160 160 161 158 149 174 109 78 73 341 14 110 167 170 140 126 116 110 96 84 81 70 62 54
183 265 157 174 174 173 165 156 161 143 145 146 158 167 140 143 150 151 137 127 147 168 103 97 53 51 91 162 263 283 205 169 147 127 130 119 111 100 94 89 85 73 62
180 182 179 168 176 185 176 168 162 166 167 171 177 181 185 156 157 162 147 146 164 137 147 128 83 64 111 225 242 278 162 143 123 122 127 124 120 115 115 115 102 82 66
180 153 174 170 173 190 189 172 169 169 169 169 173 184 173 151 169 148 163 164 176 172 141 119 114 153 239 284 247 122 135 132 131 118 131 136 148 143 136 129 104 82 66
181 174 180 170 180 190 194 188 180 171 168 163 168 187 171 159 169 178 157 194 185 200 156 158 176 191 290 312 41 112 123 110 121 123 138 138 148 166 129 124 85 71 65
213 170 168 177 176 183 187 192 189 183 171 175 176 173 173 162 169 156 172 192 160 202 196 191 201 113 49 68 64 82 98 118 133 139 129 176 136 121 36 95 97 80 42
183 177 163 163 161 173 195 194 185 187 178 179 169 164 170 164 162 167 185 188 174 183 192 204 171 102 104 90 80 58 68 104 134 134 141 129 127 222 199 117 124 107 311
208 160 172 160 174 167 190 195 202 193 183 178 169 167 169 173 175 171 179 161 161 181 181 153 92 106 101 78 73 40 40 49 125 137 144 175 210 224 234 266 233 314 315
192 174 164 177 164 175 173 174 199 196 188 166 175 174 169 175 173 162 169 154 137 145 146 118 106 71 97 100 82 63 44 70 73 70 73 4 132 357 301 355 4 340 343
177 204 154 186 190 176 173 176 195 193 195 187 184 175 174 173 156 160 156 129 148 169 147 126 115 107 82 107 104 64 50 54 61 55 59 33 60 358 335 4 345 5 347
215 204 212 175 180 183 188 188 204 180 192 193 187 184 170 166 142 150 154 148 151 126 129 137 127 122 85 10 123 129 143 72 67 47 38 36 21 358 346 12 37 28 18
214 200 215 193 180 181 184 177 188 106 95 133 170 171 167 147 145 156 157 141 147 144 151 145 122 123 144 47 63 132 140 189 138 1 32 39 23 25 15 32 50 41 30
213 200 201 197 197 184 174 181 172 183 182 182 188 174 159 152 139 157 143 143 150 128 134 123 143 142 129 138 99 52 48 95 151 133 29 26 42 56 49 52 53 50 34
210 187 196 182 188 188 187 173 176 187 181 152 164 146 162 149 139 148 148 141 126 118 117 124 120 112 106 118 98 135 62 63 66 126 153 89 71 65 47 57 47 45 28
224 191 185 181 186 180 188 185 178 175 159 140 136 152 155 161 137 128 127 121 112 111 118 101 88 95 89 84 90 83 112 115 81 99 112 147 283 106 54 45 51 41 25